Back to catalog

STARLINK-4413

AliveCommunicationsSSO
NORAD 53207·PAYLOAD·🇺🇸 United States

Launched Jul 22, 2022 from Vandenberg Space Force Base

Loading…

Next Passes (next 24 hours)

TLE

FreshSource: CelesTrak SupGP

Epoch: Sep 14, 2026, 13:30 UTC

1 53207C 22084U   26257.56298611  .00078137  00000+0  24263-2 0  2574
2 53207  97.2839 312.4547 0001403  89.2490 175.8244 15.33390052    16

Track STARLINK-4413 in real time with AllMySat

Download on the App Store